CAP964 SAWG-SAWE

Flight info

Callsign CAP964
Flight time 0h 42m
Altitude 2500
Route 5204S06900W 5248S06828W DCT 5341S06725W
Aircraft B350/L-SBGRW/S

Departure

Time 2026-04-28 02:20
Airport Piloto Civil Norberto Fernández International Airport (SAWG)

Arrival

Time 2026-04-28 03:03
Airport Hermes Quijada International Airport (SAWE)
Time Latitude Longitude Altitude Speed Heading
2026-04-28 02:07 -51.61196 -69.30389 61 ft 0 kts 343°
2026-04-28 02:15 -51.61170 -69.30410 57 ft 7 kts 323°
2026-04-28 02:16 -51.61141 -69.30458 61 ft 5 kts 313°
2026-04-28 02:16 -51.61118 -69.30498 61 ft 5 kts 313°
2026-04-28 02:16 -51.61095 -69.30535 58 ft 4 kts 319°
2026-04-28 02:16 -51.61065 -69.30554 61 ft 7 kts
2026-04-28 02:17 -51.61035 -69.30436 61 ft 17 kts 87°
2026-04-28 02:17 -51.61025 -69.30222 60 ft 21 kts 86°
2026-04-28 02:17 -51.61015 -69.29981 60 ft 22 kts 83°
2026-04-28 02:17 -51.60999 -69.29736 59 ft 22 kts 90°
2026-04-28 02:18 -51.60982 -69.29488 56 ft 22 kts 53°
2026-04-28 02:18 -51.60888 -69.29464 59 ft 3 kts 355°
2026-04-28 02:18 -51.60838 -69.29466 55 ft 11 kts
2026-04-28 02:18 -51.60796 -69.29473 58 ft 0 kts 267°
2026-04-28 02:19 -51.60803 -69.29598 59 ft 49 kts 265°
2026-04-28 02:19 -51.60852 -69.30625 113 ft 124 kts 264°
2026-04-28 02:19 -51.60928 -69.32296 287 ft 172 kts 266°
2026-04-28 02:20 -51.61009 -69.34387 457 ft 200 kts 266°
2026-04-28 02:20 -51.61152 -69.36687 640 ft 217 kts 261°
2026-04-28 02:20 -51.61843 -69.38744 815 ft 213 kts 220°
2026-04-28 02:20 -51.63248 -69.39333 1016 ft 218 kts 174°
2026-04-28 02:21 -51.64544 -69.38054 1210 ft 229 kts 133°
2026-04-28 02:21 -51.65475 -69.35961 1393 ft 230 kts 128°
2026-04-28 02:21 -51.66375 -69.33812 1578 ft 234 kts 128°
2026-04-28 02:21 -51.67222 -69.31740 1748 ft 241 kts 128°
2026-04-28 02:22 -51.68163 -69.29473 1915 ft 246 kts 129°
2026-04-28 02:22 -51.69293 -69.27487 2114 ft 243 kts 146°
2026-04-28 02:22 -51.70638 -69.25840 2300 ft 243 kts 153°
2026-04-28 02:22 -51.72069 -69.24369 2411 ft 246 kts 157°
2026-04-28 02:23 -51.73569 -69.22993 2458 ft 250 kts 159°
2026-04-28 02:23 -51.75100 -69.21644 2481 ft 249 kts 161°
2026-04-28 02:23 -51.76644 -69.20481 2493 ft 243 kts 166°
2026-04-28 02:23 -51.78206 -69.19469 2500 ft 241 kts 167°
2026-04-28 02:24 -51.79166 -69.18850 2503 ft 241 kts 167°
2026-04-28 02:24 -51.80306 -69.18105 2504 ft 241 kts 167°
2026-04-28 02:24 -51.81834 -69.17074 2502 ft 241 kts 166°
2026-04-28 02:24 -51.83383 -69.16021 2508 ft 242 kts 166°
2026-04-28 02:25 -51.84932 -69.14951 2501 ft 242 kts 166°
2026-04-28 02:25 -51.86484 -69.13887 2503 ft 242 kts 166°
2026-04-28 02:25 -51.88030 -69.12814 2495 ft 242 kts 166°
2026-04-28 02:25 -51.89576 -69.11750 2495 ft 241 kts 167°
2026-04-28 02:26 -51.91121 -69.10698 2497 ft 241 kts 167°
2026-04-28 02:26 -51.92663 -69.09640 2491 ft 241 kts 167°
2026-04-28 02:26 -51.94205 -69.08582 2488 ft 240 kts 167°
2026-04-28 02:26 -51.95721 -69.07550 2487 ft 240 kts 167°
2026-04-28 02:27 -51.97256 -69.06498 2490 ft 239 kts 167°
2026-04-28 02:27 -51.98787 -69.05438 2486 ft 239 kts 166°
2026-04-28 02:27 -52.00317 -69.04379 2487 ft 239 kts 167°
2026-04-28 02:27 -52.01850 -69.03334 2495 ft 239 kts 167°
2026-04-28 02:28 -52.03381 -69.02266 2484 ft 239 kts 166°
2026-04-28 02:28 -52.04911 -69.01210 2480 ft 239 kts 167°
2026-04-28 02:28 -52.06442 -69.00173 2479 ft 238 kts 167°
2026-04-28 02:28 -52.07966 -68.99100 2473 ft 239 kts 166°
2026-04-28 02:29 -52.09463 -68.98025 2474 ft 238 kts 166°
2026-04-28 02:29 -52.10974 -68.96933 2471 ft 238 kts 166°
2026-04-28 02:29 -52.12482 -68.95837 2466 ft 237 kts 166°
2026-04-28 02:29 -52.13992 -68.94753 2498 ft 237 kts 166°
2026-04-28 02:30 -52.15507 -68.93657 2488 ft 239 kts 166°
2026-04-28 02:30 -52.17033 -68.92571 2472 ft 239 kts 167°
2026-04-28 02:30 -52.18561 -68.91495 2476 ft 239 kts 166°
2026-04-28 02:30 -52.20087 -68.90390 2479 ft 240 kts 166°
2026-04-28 02:31 -52.21616 -68.89291 2470 ft 240 kts 166°
2026-04-28 02:31 -52.23094 -68.88236 2471 ft 241 kts 166°
2026-04-28 02:31 -52.24624 -68.87134 2467 ft 241 kts 166°
2026-04-28 02:31 -52.26153 -68.86022 2467 ft 241 kts 166°
2026-04-28 02:32 -52.27681 -68.84908 2467 ft 241 kts 165°
2026-04-28 02:32 -52.29210 -68.83795 2455 ft 240 kts 165°
2026-04-28 02:32 -52.30741 -68.82697 2484 ft 241 kts 165°
2026-04-28 02:32 -52.32277 -68.81595 2451 ft 240 kts 166°
2026-04-28 02:33 -52.33810 -68.80514 2454 ft 240 kts 165°
2026-04-28 02:33 -52.35331 -68.79404 2460 ft 239 kts 165°
2026-04-28 02:33 -52.36849 -68.78287 2460 ft 239 kts 165°
2026-04-28 02:33 -52.38343 -68.77191 2458 ft 239 kts 165°
2026-04-28 02:34 -52.39860 -68.76088 2455 ft 239 kts 165°
2026-04-28 02:34 -52.41379 -68.74985 2449 ft 239 kts 165°
2026-04-28 02:34 -52.42905 -68.73887 2450 ft 239 kts 165°
2026-04-28 02:34 -52.44429 -68.72784 2452 ft 240 kts 165°
2026-04-28 02:35 -52.45955 -68.71674 2451 ft 240 kts 165°
2026-04-28 02:35 -52.47482 -68.70559 2447 ft 240 kts 165°
2026-04-28 02:35 -52.49012 -68.69439 2446 ft 240 kts 165°
2026-04-28 02:35 -52.50517 -68.68344 2448 ft 240 kts 165°
2026-04-28 02:36 -52.52045 -68.67241 2448 ft 240 kts 165°
2026-04-28 02:36 -52.53570 -68.66127 2448 ft 240 kts 164°
2026-04-28 02:36 -52.55093 -68.65001 2445 ft 240 kts 164°
2026-04-28 02:36 -52.56616 -68.63877 2441 ft 240 kts 164°
2026-04-28 02:37 -52.58139 -68.62766 2441 ft 239 kts 164°
2026-04-28 02:37 -52.59661 -68.61652 2442 ft 239 kts 164°
2026-04-28 02:37 -52.61182 -68.60537 2440 ft 239 kts 164°
2026-04-28 02:37 -52.62685 -68.59437 2438 ft 240 kts 164°
2026-04-28 02:38 -52.64209 -68.58321 2437 ft 240 kts 164°
2026-04-28 02:38 -52.65735 -68.57201 2439 ft 240 kts 163°
2026-04-28 02:38 -52.67260 -68.56078 2437 ft 240 kts 163°
2026-04-28 02:38 -52.68789 -68.54948 2429 ft 241 kts 163°
2026-04-28 02:39 -52.70316 -68.53814 2427 ft 241 kts 163°
2026-04-28 02:39 -52.71846 -68.52691 2428 ft 240 kts 163°
2026-04-28 02:39 -52.73374 -68.51570 2430 ft 241 kts 163°
2026-04-28 02:39 -52.74902 -68.50440 2431 ft 241 kts 163°
2026-04-28 02:40 -52.76411 -68.49317 2426 ft 241 kts 163°
2026-04-28 02:40 -52.77937 -68.48178 2410 ft 241 kts 163°
2026-04-28 02:40 -52.79189 -68.47123 2383 ft 242 kts 159°
2026-04-28 02:40 -52.80658 -68.45741 2291 ft 245 kts 158°
2026-04-28 02:41 -52.82113 -68.44321 2042 ft 243 kts 155°
2026-04-28 02:41 -52.83514 -68.42757 1810 ft 244 kts 151°
2026-04-28 02:41 -52.84869 -68.41083 1590 ft 241 kts 150°
2026-04-28 02:41 -52.86200 -68.39453 1561 ft 235 kts 151°
2026-04-28 02:42 -52.87509 -68.37859 1539 ft 232 kts 151°
2026-04-28 02:42 -52.88763 -68.36404 1526 ft 231 kts 153°
2026-04-28 02:42 -52.90091 -68.34915 1521 ft 231 kts 153°
2026-04-28 02:42 -52.91415 -68.33402 1509 ft 231 kts 152°
2026-04-28 02:43 -52.92730 -68.31888 1495 ft 230 kts 152°
2026-04-28 02:43 -52.94035 -68.30372 1497 ft 229 kts 152°
2026-04-28 02:43 -52.95330 -68.28845 1476 ft 228 kts 150°
2026-04-28 02:43 -52.96607 -68.27323 1456 ft 224 kts 152°
2026-04-28 02:44 -52.97871 -68.25837 1474 ft 222 kts 152°
2026-04-28 02:44 -52.99129 -68.24365 1482 ft 221 kts 153°
2026-04-28 02:44 -53.00386 -68.22899 1488 ft 221 kts 153°
2026-04-28 02:44 -53.01626 -68.21450 1492 ft 221 kts 153°
2026-04-28 02:45 -53.02887 -68.19982 1489 ft 222 kts 153°
2026-04-28 02:45 -53.04153 -68.18511 1493 ft 222 kts 152°
2026-04-28 02:45 -53.05423 -68.17024 1495 ft 223 kts 152°
2026-04-28 02:45 -53.06687 -68.15521 1482 ft 224 kts 152°
2026-04-28 02:46 -53.07953 -68.14015 1483 ft 224 kts 152°
2026-04-28 02:46 -53.09222 -68.12521 1479 ft 224 kts 152°
2026-04-28 02:46 -53.10494 -68.11029 1487 ft 224 kts 152°
2026-04-28 02:46 -53.11751 -68.09547 1483 ft 225 kts 152°
2026-04-28 02:47 -53.13036 -68.08026 1489 ft 231 kts 152°
2026-04-28 02:47 -53.14374 -68.06443 1498 ft 239 kts 152°
2026-04-28 02:47 -53.15752 -68.04839 1498 ft 244 kts 152°
2026-04-28 02:47 -53.17151 -68.03202 1492 ft 247 kts 151°
2026-04-28 02:48 -53.18547 -68.01536 1493 ft 247 kts 151°
2026-04-28 02:48 -53.19941 -67.99856 1491 ft 247 kts 151°
2026-04-28 02:48 -53.21344 -67.98190 1492 ft 247 kts 151°
2026-04-28 02:48 -53.22727 -67.96543 1494 ft 247 kts 151°
2026-04-28 02:49 -53.24130 -67.94877 1493 ft 248 kts 152°
2026-04-28 02:49 -53.25538 -67.93198 1498 ft 249 kts 152°
2026-04-28 02:49 -53.26958 -67.91525 1495 ft 251 kts 152°
2026-04-28 02:49 -53.28385 -67.89836 1492 ft 252 kts 152°
2026-04-28 02:50 -53.29814 -67.88136 1482 ft 252 kts 152°
2026-04-28 02:50 -53.31242 -67.86426 1484 ft 252 kts 151°
2026-04-28 02:50 -53.32668 -67.84719 1478 ft 252 kts 152°
2026-04-28 02:50 -53.34089 -67.83012 1475 ft 252 kts 151°
2026-04-28 02:51 -53.35490 -67.81330 1471 ft 251 kts 152°
2026-04-28 02:51 -53.36911 -67.79638 1474 ft 250 kts 152°
2026-04-28 02:51 -53.38326 -67.77946 1477 ft 250 kts 152°
2026-04-28 02:51 -53.39740 -67.76251 1475 ft 250 kts 152°
2026-04-28 02:52 -53.41155 -67.74565 1475 ft 249 kts 152°
2026-04-28 02:52 -53.42563 -67.72872 1480 ft 249 kts 151°
2026-04-28 02:52 -53.43972 -67.71173 1472 ft 250 kts 151°
2026-04-28 02:52 -53.45381 -67.69475 1470 ft 250 kts 151°
2026-04-28 02:53 -53.46794 -67.67771 1466 ft 250 kts 151°
2026-04-28 02:53 -53.48187 -67.66095 1466 ft 250 kts 152°
2026-04-28 02:53 -53.49601 -67.64384 1463 ft 251 kts 152°
2026-04-28 02:53 -53.51014 -67.62668 1468 ft 251 kts 152°
2026-04-28 02:54 -53.52442 -67.60966 1423 ft 253 kts 152°
2026-04-28 02:54 -53.53891 -67.59237 1315 ft 258 kts 152°
2026-04-28 02:54 -53.55320 -67.57509 1174 ft 245 kts 151°
2026-04-28 02:54 -53.56663 -67.55848 1052 ft 235 kts 150°
2026-04-28 02:55 -53.57960 -67.54262 1008 ft 227 kts 151°
2026-04-28 02:55 -53.59225 -67.52731 1003 ft 222 kts 152°
2026-04-28 02:55 -53.60474 -67.51216 1005 ft 221 kts 152°
2026-04-28 02:55 -53.61702 -67.49735 997 ft 219 kts 151°
2026-04-28 02:56 -53.62931 -67.48249 987 ft 217 kts 151°
2026-04-28 02:56 -53.64156 -67.46770 984 ft 216 kts 151°
2026-04-28 02:56 -53.65374 -67.45284 992 ft 219 kts 151°
2026-04-28 02:56 -53.66620 -67.43759 998 ft 223 kts 152°
2026-04-28 02:57 -53.67921 -67.42984 993 ft 179 kts 195°
2026-04-28 02:57 -53.68809 -67.43865 998 ft 136 kts 245°
2026-04-28 02:57 -53.69292 -67.45183 997 ft 130 kts 246°
2026-04-28 02:57 -53.69734 -67.46488 993 ft 127 kts 249°
2026-04-28 02:58 -53.70159 -67.47762 993 ft 129 kts 241°
2026-04-28 02:58 -53.70866 -67.48768 998 ft 135 kts 227°
2026-04-28 02:58 -53.71627 -67.49699 1005 ft 135 kts 226°
2026-04-28 02:58 -53.72396 -67.50624 1015 ft 136 kts 226°
2026-04-28 02:59 -53.73173 -67.51553 1013 ft 140 kts 226°
2026-04-28 02:59 -53.74023 -67.52626 1012 ft 164 kts 226°
2026-04-28 02:59 -53.74929 -67.53898 1007 ft 173 kts 232°
2026-04-28 02:59 -53.75573 -67.55546 1007 ft 171 kts 251°
2026-04-28 03:00 -53.75994 -67.57427 1008 ft 172 kts 256°
2026-04-28 03:00 -53.76346 -67.59356 1002 ft 172 kts 258°
2026-04-28 03:00 -53.76659 -67.61315 1000 ft 173 kts 261°
2026-04-28 03:00 -53.76965 -67.63280 1034 ft 173 kts 256°
2026-04-28 03:01 -53.77272 -67.65099 858 ft 141 kts 260°
2026-04-28 03:01 -53.77431 -67.66586 699 ft 119 kts 266°
2026-04-28 03:01 -53.77528 -67.67906 655 ft 109 kts 268°
2026-04-28 03:01 -53.77590 -67.69146 602 ft 105 kts 269°
2026-04-28 03:02 -53.77632 -67.70422 462 ft 111 kts 270°
2026-04-28 03:02 -53.77670 -67.71758 283 ft 117 kts 271°
2026-04-28 03:02 -53.77699 -67.72978 147 ft 91 kts 270°
2026-04-28 03:02 -53.77725 -67.73917 58 ft 68 kts 273°
2026-04-28 03:03 -53.77731 -67.74380 52 ft 0 kts 266°
2026-04-28 03:03 -53.77734 -67.74445 53 ft 6 kts 263°
2026-04-28 03:03 -53.77738 -67.74503 54 ft 25 kts 268°
2026-04-28 03:04 -53.77747 -67.74818 58 ft 16 kts 261°
2026-04-28 03:04 -53.77756 -67.74957 60 ft 16 kts 268°
2026-04-28 03:04 -53.77787 -67.75133 61 ft 13 kts 242°
2026-04-28 03:04 -53.77838 -67.75289 61 ft 16 kts 238°
2026-04-28 03:05 -53.77915 -67.75353 57 ft 15 kts 178°
2026-04-28 03:05 -53.78030 -67.75345 61 ft 17 kts 175°
2026-04-28 03:05 -53.78071 -67.75391 61 ft 2 kts 250°
2026-04-28 03:05 -53.78115 -67.75438 55 ft 4 kts 179°
2026-04-28 03:06 -53.78121 -67.75438 57 ft 0 kts 181°